Preview of NWS' New Version of Forecast
This preview is not operational and should not be used for support decisions.
Latest weather observations around

Roanoke, Roanoke Regional Airport (KROA)

Using International System of Units (Switch to English Units)
Date/ Time (EST) Wind (kph) Vis. (km) Weather Sky Cond. Temp (°C) Rel. Humidity Wind Chill (°C) Heat Index (°C) Pressure Precip. (cm)
Air Dwpt 6 hour Altimeter (hPa) Sea level (hPa) 1 hr 3 hr 6 hr
Max Min
Jan 21 03:54   16.09 Clear CLR -12 -20     50%     1023 1024.5      
Jan 21 02:54   16.09 Clear CLR -11 -19     50%     1022 1023.6      
Jan 21 01:54 NW 11 16.09 Clear CLR -11 -19     48% -16   1021.3 1022.8      
Jan 21 00:54 WNW 13 16.09 Clear CLR -10 -20     44% -16   1020.7 1022      
Jan 20 23:54 W 21 16.09 Clear CLR -9 -19     44% -17   1019.7 1020.9      
Jan 20 22:54 W 17 16.09 Clear CLR -9 -19     44% -16   1019 1020.2      
Jan 20 21:54   16.09 Clear CLR -8 -18     44%     1018 1019      
Jan 20 20:54   16.09 Clear CLR -7 -18     43%     1016.6 1017.6      
Jan 20 19:54 W 22 16.09 Clear CLR -7 -16     47% -14   1015.6 1016.4      
Jan 20 18:54   16.09 Mostly Clear FEW055 -6 -16     47%     1014.2 1014.9     0
Jan 20 17:54 NW 22 16.09 Mostly Clear FEW055 -4 -14     46% -11   1012.9 1013.5      
Jan 20 16:54 WNW 26 16.09 Mostly Clear FEW050 -2 -14     40% -9   1011.2 1011.8      
Jan 20 15:54   16.09 Mostly Clear FEW050 -1 -12     43%     1009.5 1010.3   0  
Jan 20 14:54   16.09 Mostly Clear FEW046 -1 -11     45%     1008.5 1009.2      
Jan 20 13:54   16.09 Mostly Clear FEW041 0 -11     45%     1007.8 1008.6 0    
Jan 20 12:54   16.09 Mostly Cloudy BKN041 BKN048 0 -9     51%     1007.1 1007.7 0   0
Jan 20 11:54   16.09 Partly Cloudy SCT042 1 -8     51%     1006.1 1006.7 0    
Jan 20 10:54   16.09 Partly Cloudy SCT040 2 -7     52%     1005.1 1005.4 0    
Jan 20 09:54   16.09 Partly Cloudy SCT040 2 -7     54%     1003.4 1004   0  
Jan 20 08:54   16.09 Mostly Cloudy BKN033 3 -4     61%     1002.7 1003.1      
Jan 20 07:54   16.09 Mostly Cloudy SCT034 BKN120 4 -2     62%     1000 1000.4 0    
Jan 20 06:54 WNW 17 16.09 Partly Cloudy SCT033 SCT055 8 3     71% 5   998 998.2     0
Jan 20 05:54 W 26 16.09 Cloudy FEW032 SCT043 OVC055 9 5     77% 5   996.6 996.5      
Jan 20 04:54 Calm 14.48 Partly Cloudy FEW002 SCT080 3 3     97%     994.9 995.2 0    
Jan 20 03:54 Calm 9.66 Light Rain and Fog/Mist FEW002 BKN055 OVC070 3 3     97%     996.3 996.5 0 0  
Jan 20 03:34 Calm 4.83 Rain and Fog/Mist SCT003 OVC049 3 3     100%     996.3   0    
Jan 20 03:31 Calm 4.02 Rain and Fog/Mist BKN003 OVC049 3 3     100%     996.3   0    
Jan 20 03:22 W 9 6.44 Rain and Fog/Mist BKN003 OVC043 3 3     97% 1   996.6   0    
Jan 20 03:08 Calm 11.27 Cloudy OVC004 4 3     96%     995.9   0    
Jan 20 02:54 Calm 11.27 Light Rain OVC005 3 3     100%     996.3 996.6 0    
Jan 20 01:54 Calm 8.05 Light Rain and Fog/Mist OVC006 3 3     97%     998 998.4 0    
Jan 20 00:54 Calm 16.09 Cloudy OVC007 3 3     97%     999.7 999.9 0   1
Jan 19 23:54 ESE 9 16.09 Light Rain OVC007 3 2     96% 0   1001 1001.3 0    
Jan 19 22:54 Calm 9.66 Light Rain and Fog/Mist OVC009 3 2     96%     1003.7 1003.9 0    
Jan 19 22:45 Calm 9.66 Light Rain and Fog/Mist OVC009 3 2     96%     1004.1   0    
Jan 19 21:54 NW 5 8.05 Rain and Fog/Mist OVC012 3 2     96% 1   1004.4 1005 0 1  
Jan 19 21:29 Calm 9.66 Light Rain and Fog/Mist OVC010 3 2     96%     1005.1   0    
Jan 19 21:06 W 5 8.05 Light Rain and Fog/Mist BKN008 OVC012 3 2     96% 1   1005.4   0    
Jan 19 20:54 WSW 5 4.83 Fog/Mist OVC012 3 2     96% 1   1005.8 1006 0    
Jan 19 20:36 W 5 4.83 Light Rain and Fog/Mist OVC007 3 2     96% 1   1006.1   0    
Jan 19 19:54 W 5 4.83 Light Rain and Fog/Mist OVC004 3 2     96% 1   1006.8 1007.3 0    
Jan 19 19:42 W 5 4.83 Rain and Fog/Mist OVC004 3 2     96% 1   1007.1   0    
Jan 19 18:54 Calm 8.05 Light Rain and Fog/Mist OVC003 3 2     96%     1008.1 1008.6 0   1
Jan 19 17:54 SE 5 8.05 Light Rain and Fog/Mist OVC005 3 2     96% 1   1009.5 1009.9 0    
Jan 19 17:52 ESE 5 8.05 Light Rain and Fog/Mist OVC005 3 2     93% 2   1009.5   0    
Jan 19 16:54 S 5 4.83 Light Rain and Fog/Mist BKN004 OVC010 3 2     96% 1   1010.5 1010.8 0    
Jan 19 16:52 S 5 4.83 Light Rain and Fog/Mist BKN004 OVC010 3 2     93% 2   1010.5   0    
Jan 19 16:33 SSE 13 4.02 Light Rain and Fog/Mist OVC004 3 2     96% -1   1010.8   0    
Jan 19 16:30 SSE 9 4.83 Light Rain and Fog/Mist OVC005 3 2     96% 0   1010.5   0    
Jan 19 16:18 SSE 8 4.83 Light Rain and Fog/Mist OVC004 3 2     96% 1   1011.2   0    
Jan 19 15:54 SE 11 3.22 Light Rain and Fog/Mist OVC005 3 2     96% 0   1011.9 1012.2 0 0  
Jan 19 14:54 SE 13 3.22 Fog/Mist OVC005 3 2     92% 0   1012.5 1013      
Jan 19 14:17 SSE 11 3.22 Fog/Mist OVC004 3 3     97% 0   1013.6        
Jan 19 13:54 SE 18 3.22 Fog/Mist BKN005 OVC011 3 2     92% -1   1013.9 1014.3 0    
Jan 19 13:01 SSE 13 4.02 Fog/Mist OVC009 4 3     93% 1   1015.6        
Jan 19 12:54 SE 15 4.83 Fog/Mist OVC009 4 2     89% 0   1015.2 1015.8      
Jan 19 12:18 SSE 9 11.27 Cloudy OVC010 4 2     86% 2   1016.9        
Jan 19 11:54 SSE 9 16.09 Cloudy OVC009 4 2     86% 2   1017.6 1018      
Jan 19 10:54 SSE 9 16.09 Cloudy OVC007 4 2     86% 2   1019 1019.3      
Jan 19 09:54 SE 8 11.27 Cloudy OVC007 4 2     89% 2   1019.7 1020.1      
Jan 19 08:54 Calm 16.09 Cloudy OVC009 4 2     86%     1019.7 1019.8      
Jan 19 08:39 E 8 16.09 Cloudy OVC009 4 2     86% 2   1019        
Jan 19 08:08 E 11 16.09 Cloudy FEW008 BKN013 OVC032 3 2     89% 0   1019.7        
Jan 19 07:54 Calm 16.09 Cloudy FEW008 OVC032 3 2     89%     1020 1020.3      
Jan 19 06:54 SSE 5 16.09 Cloudy OVC032 3 2     89% 2   1019.7 1020      
Jan 19 05:54 S 11 16.09 Cloudy BKN033 OVC041 3 1     85% 0   1019.7 1019.9      
Jan 19 04:54 S 15 16.09 Cloudy OVC041 4 1     79% 0   1019.7 1020      
Jan 19 03:54 SSE 5 16.09 Cloudy OVC040 4 1     79% 3   1020.3 1020.5      
Jan 19 02:54 Calm 16.09 Cloudy OVC040 4 1     79%     1020.3 1020.4      
Jan 19 01:54 Calm 16.09 Cloudy OVC041 4 0     73%     1021 1021.3      
Jan 19 00:54 NNE 9 16.09 Mostly Cloudy BKN041 4 -1     72% 2   1020.7 1020.9      
Jan 18 23:54 NE 11 16.09 Mostly Cloudy BKN038 4 0     73% 2   1021 1021.4      
Jan 18 22:54 NE 5 16.09 Mostly Cloudy BKN036 6 1     68% 5   1021.7 1022.1      
Jan 18 21:54 NE 11 16.09 Cloudy OVC036 6 1     68% 4   1021.3 1021.9      
Jan 18 20:54 NNW 8 16.09 Cloudy OVC034 7 1     65% 5   1021.3 1021.6      
Jan 18 19:54 NNW 15 16.09 Cloudy OVC034 7 1     65% 5   1021 1021.4      
Jan 18 18:54 NW 13 16.09 Cloudy OVC034 7 1     65% 5   1020.3 1020.9      
Jan 18 17:54 NNW 9 16.09 Cloudy OVC036 7 1     67% 5   1019.7 1020.2      
Jan 18 16:54 NW 22 16.09 Mostly Cloudy BKN037 8 1     60% 5   1019.7 1020      
Jan 18 15:54 NW 18 16.09 Mostly Cloudy BKN037 9 1     58% 6   1019.3 1019.7      
Jan 18 14:54 NW 15 16.09 Mostly Cloudy BKN036 10 2     58%     1018.6 1019.1      
Jan 18 13:54 NW 21 16.09 Cloudy OVC034 9 2     61% 6   1019 1019.3      
Jan 18 12:54 W 21 16.09 Partly Cloudy SCT042 9 2     61% 6   1018.6 1019      
Jan 18 11:54 WNW 13 16.09 Partly Cloudy FEW035 SCT042 9 4     73% 7   1019.7 1020      
Jan 18 10:54 W 9 16.09 Cloudy OVC034 6 3     85% 4   1020.7 1021.4      
Jan 18 09:54 ENE 5 16.09 Mostly Cloudy BKN036 4 2     89% 3   1020 1020.7      
Jan 18 08:54 E 5 12.87 Cloudy OVC039 2 1     92% 1   1019 1019.8      
Jan 18 07:54 Calm 9.66 Fog/Mist BKN038 2 1     92%     1018.6 1019.4      
Jan 18 06:54 NE 5 12.87 Cloudy OVC038 2 1     92% 0   1018.3 1019.1      
Jan 18 05:54 ENE 5 8.05 Fog/Mist BKN029 BKN036 OVC044 1 0     92% -1   1018 1018.7      
Jan 18 04:54 Calm 8.05 Fog/Mist OVC028 1 0     96%     1018 1018.6      
May 15 14:54 S 18 16.09 Mostly Cloudy FEW042 BKN100 BKN160 31 20     52%   33 1014.9 1013.5      
May 14 23:54 ENE 5 16.09 Cloudy OVC070 24 17     66%   24 1017.3 1015.8      
May 14 18:54 S 18 16.09 Partly Cloudy FEW070 SCT100 SCT250 31 17     43%   32 1014.9 1013.4      
May 14 12:54 S 8 16.09 Mostly Clear FEW048 31 17     43%   32 1018 1016.5      
May 14 11:54 8 16.09 Mostly Clear FEW048 30 17     45%   30 1018.3 1016.8      
May 13 17:54 WSW 15 16.09 Clear CLR 33 12     29%   32 1015.6 1014      
May 12 17:54 WSW 9 16.09 Mostly Cloudy FEW080 BKN160 33 13     31%   32 1016.9 1015.3      
May 12 07:54 W 5 16.09 Partly Cloudy SCT250 22 16     70%   22 1021 1019.7      
May 12 06:20 Calm 16.09 Partly Cloudy SCT250 19 14     73%     1020        
May 11 14:54 9 16.09 Partly Cloudy SCT060 30 13     35%   29 1017.3 1015.9      
Jun 12 02:54 WNW 8 16.09 Clear CLR 22 15     66%   22 1021.3 1019.9      
Jun 10 01:54 Calm 16.09 Clear CLR 15 12     83%     1018.3 1017.3      
Jun 09 11:54 NW 24 16.09 Partly Cloudy SCT043 SCT050 23 11     45%   23 1015.6 1014.7      
Jun 09 02:54 W 13 16.09 Mostly Cloudy BKN090 15 13     90%     1012.5 1011.8      
Jun 09 00:54 W 9 16.09 Cloudy OVC090 15 14     93%     1012.9 1012.3      
Jun 08 09:54 ENE 11 16.09 Mostly Cloudy BKN028 BKN035 16 11     72%     1016.3 1015.7      
Jun 07 22:54 NE 11 16.09 Mostly Cloudy FEW027 BKN041 BKN048 17 12     72%     1017.3 1016.5      
Jun 07 11:54 NE 13 16.09 Partly Cloudy SCT044 22 10     47%   21 1014.6 1013.6      
Jun 06 07:54 9 16.09 Partly Cloudy FEW040 SCT280 20 16     76%     1010.2 1009.2      
Jun 05 15:54 WSW 9 16.09 Light Rain FEW013 OVC060 20 18     90%     1009.5 1008.5 0